Weather in Blahovishchenka

Ukraine / Zaporizhia Region     47°27′12″N   34°49′52″E
temp.,
°C
wind,
m/s
gust,
m/s
humid.,
%
clouds,
%
prec.,
mm/h
press.,
hPa
HPBL,
m
27 october, wed
wed2700:00+3sse46620 0.0 1031164
03:00+3se34650 0.0 1030141
06:00+3se45650 0.0 1029142
09:00+5se34600 0.0 1029202
12:00+9se23440 0.0 1028639
15:00+11n22420 0.0 1026668
18:00+8nw12550 0.0 102519
21:00+8wnw22550 0.0 102640
28 october, thu
thu2800:00+7wsw22592 0.0 102551
03:00+6wnw226417 0.0 102568
06:00+6wnw227673 0.0 102573
09:00+8w237699 0.0 1026153
12:00+11w335899 0.0 1025360
15:00+13w455355 0.0 1023395
18:00+11wsw335843 0.0 102323
21:00+11w4767100 0.0 1023107
29 october, fri
fri2900:00+11w5870100 0.0 1023151
03:00+11nnw367593 0.0 1023119
06:00+9n359039 0.0 1025103
09:00+10nne35865 0.0 1026198
12:00+13ne34710 0.0 1027395
15:00+14ne24600 0.0 1027611
18:00+12ne33640 0.0 102819
21:00+11ene47730 0.0 102989
30 october, sat
sat3000:00+9e57770 0.0 1030122
03:00+9e34790 0.0 103069
06:00+8e45780 0.0 103194
09:00+9e47765 0.0 1032240
12:00+12e56635 0.0 1032605
15:00+13ene56545 0.0 1031458
18:00+11e46625 0.0 103171
21:00+9ese46660 0.0 103190
31 october, sun
sun3100:00+8e57730 0.0 1031136
03:00+8e58770 0.0 1031191
05:00+7e68820 0.0 1030201
08:00+8e710730 0.0 1030320
11:00+12e69590 0.0 1029544
14:00+14e68520 0.0 1026728
17:00+11e58610 0.0 102688
20:00+10ene510670 0.0 1026159